Heringsdorf Airport EDAH

Flugplatz Daten

Name: Heringsdorf Airport

Ident: EDAH

Lat: 53,87870026

Long: 14,15229988

Platzhöhe: 93 ft

IataCode: HDF

City: Heringsdorf

Metar

2022/08/15 15:20
EDAH 151520Z 04009KT CAVOK 26/20 Q1004

Taf

Gewünschte Webcam nicht vorhanden? Dann fügen Sie eine hinzu. Sie wird dann so schnell wie möglich freigeschaltet
Url: Title: